Location: Newark
(48.8604°N, 2.3376°E)
Time: 19:15:05
(UTC+00:00)

BEESAT 2 - Visible Passes

Search period start: 07 December 2021 00:00
Search period end: 17 December 2021 00:00
Orbit: 497 x 516 km, 64.9° (Epoch: 06 December)

Date Brightness Start Highest point End Pass type
(mag) Time Alt. Az. Time Alt. Az. Time Alt. Az.
07 Dec ? 04:58:54 65° ENE 04:58:54 65° ENE 05:02:37 10° SE visible
07 Dec ? 06:33:44 11° W 06:35:46 16° WSW 06:38:07 10° SSW visible
08 Dec ? 04:41:22 40° ESE 04:41:22 40° ESE 04:44:02 10° SE visible
08 Dec ? 06:16:12 15° W 06:17:12 16° WSW 06:19:39 10° SSW visible
09 Dec ? 04:23:54 22° ESE 04:23:54 22° ESE 04:25:25 10° SE visible
09 Dec ? 05:58:45 17° WSW 05:58:45 17° WSW 06:01:10 10° SSW visible
10 Dec ? 04:06:32 12° SE 04:06:32 12° SE 04:06:49 10° SE visible
10 Dec ? 05:41:23 15° SW 05:41:23 15° SW 05:42:40 10° SSW visible
11 Dec ? 05:24:05 10° SSW 05:24:05 10° SSW 05:24:10 10° SSW visible
14 Dec ? 18:14:36 10° SSE 18:14:38 10° SSE 18:14:38 10° SSE visible
15 Dec ? 17:56:03 10° SSE 17:57:17 16° SSE 17:57:17 16° SSE visible
16 Dec ? 17:37:30 10° SSE 17:39:52 19° SE 17:39:52 19° SE visible
16 Dec ? 19:13:40 10° SW 19:14:42 17° WSW 19:14:42 17° WSW visible
